Location: Bord�res
(43.2000°N, 0.2167°W)
Time: 11:23:55
(UTC+00:00)

Cosmos 1933 Rocket - Pass Details

Date: 03 March 2021
Orbit: 607 x 630 km, 82.5° (Epoch: 20 April)

Event Time Altitude Azimuth Distance (km) Brightness Sun altitude
Rises 18:54:59 0° 177° (S) 2,855 6.9 -12.2°
Reaches altitude 10° 18:57:12 10° 174° (S) 1,959 6.0 -12.6°
Maximum altitude 19:01:27 59° 95° (E) 708 3.5 -13.3°
Drops below altitude 10° 19:05:47 10° 16° (NNE) 1,987 6.0 -14.1°
Sets 19:08:03 0° 12° (NNE) 2,902 6.9 -14.5°
